Showing default

IRIDIUM 151, 43074

Orbit data source: Space-Track

IRIDIUM 151, 43074 is a payload satellite owned by Iridium (US) in LEO that was launched on Sat, 23 Dec 2017 UTC via an FALCON 9 launch vehicle from the Air Force Western Test Range (AFWTR). Payload-class satellites include a variety of spacecraft equipped with specific instruments for various scientific and technological missions. These include communications satellites like Starlink; space stations such as the ISS; scientific satellites like the Hubble; Earth observation satellites from companies like Planet Labs, Umbra, and HawkEye 360; GPS; miniature CubeSats for education and research; and military/defense satellites.

Loading next visibility...
Identifier
43074, 2017-083E
Orbit
LEO
Country
Flag of USUS
Related business
Manufacturer
OATK SSG Gilbert
Mission
Operational Commercial Communications
Bus & Motor
ELITEBUS, Unknown motor
Mass
860 kg wet, 700 kg dry
Launch date (UTC)
2017-12-23 (8 years ago)
Launch vehicle
FALCON 9
Launch site
Air Force Western Test Range (AFWTR)
Object type
Payload
Rocket body
Debris
Shape & HBR
Trap Box + 2 Pan, 4.8 m
Radar Cross Section
10.154 m², Large (>1 m²)

Expand to show TLE details & history
Last TLE update: 16 hours ago

TLE from 16 hours ago
0 IRIDIUM 151
1 43074U 17083E   25347.22480530  .00000137  00000-0  41966-4 0  9993
2 43074  86.3971  39.7834 0002214  94.8133 265.3316 14.34218227417489
Epoch: 2025-12-13T05:23Z
TLE epoch observation values (Epoch: 2025-12-13T05:23:43.177Z)
Latitude
-0.00001°
Longitude
-123.30164°
Altitude
780.846 km
Speed
7.463 km/s
True Right ascension
02h 39m 08s
True Declination
0° 00' 00"
Sunlit
Object was in full shadow at epoch
Visualization orbit readout
Latitude
Unknown
Longitude
Unknown
Altitude
Unknown
Speed
Unknown
Apparent Right ascension
Unknown
Apparent Declination
Unknown
Sunlit
N/A
Visualization observer readout
Local Sidereal Time
20:21:45
Azimuth
Unknown
Elevation
Unknown
Doppler factor
Unknown
Orbital elements
Apogee altitude
776.214 km
Perigee altitude
773.046 km
Semi-major axis
7,152.767 km
Eccentricity
0.00022
Inclination
86.3971°
RAAN
39.7834°
Arg. of periapsis
94.8133°
True anomaly
265.30631°
Mean anomaly
265.3316°
Eccentric anomaly
265.31896°
Mean motion
3.58783 °/min
Orbital period
100.34 mins
BSTAR
0.000041966
Loading maneuver chart data...
Computing Atmospheric mass density...
Loading historical data...
Loading historical data...
Loading historical data...
Loading historical data...
Loading historical data...
Loading historical data...
Loading historical data...

Documentation

Showing up to 5 results
|